Simultaneous Nadir Overpasses (SNOs) Predictions

Prediction of SNOs between METOP-B and TERRA Satellite Orbit:

Table of predicted SNOs for the next 14.0 days since TLE Epoch: 7/10/2021
Index Date (METOP-B) Time (METOP-B) Lat,Lon (METOP-B) SZA (METOP-B ) Date (TERRA) Time (TERRA) Lat,Lon (TERRA) SZA (TERRA ) Distance(km) Time Diff (sec)
1 07/11/2021 23:43:19 -81.25, 49.06 118.20 07/11/2021 23:43:47 -81.25, 49.10 118.19 0.87 28
2 07/12/2021 00:33:58 81.26,-143.03 61.88 07/12/2021 00:33:13 81.26,-143.17 61.83 2.53 45
3 07/14/2021 19:17:42 -81.25, 115.56 117.79 07/14/2021 19:17:59 -81.25, 115.50 117.79 1.25 17
4 07/14/2021 20:08:21 81.27, -76.53 62.29 07/14/2021 20:07:24 81.27, -76.43 62.28 1.95 57
5 07/17/2021 14:52:05 -81.26,-177.95 117.32 07/17/2021 14:52:10 -81.26,-177.77 117.29 3.27 5
6 07/17/2021 15:42:44 81.27, -10.05 62.76 07/17/2021 15:41:36 81.27, -10.10 62.72 0.83 68
7 07/20/2021 09:35:47 81.25, 80.74 63.13 07/20/2021 09:36:54 81.26, 80.92 63.19 3.14 67
8 07/20/2021 10:26:27 -81.26,-111.49 116.81 07/20/2021 10:26:21 -81.26,-111.45 116.81 0.59 6
9 07/23/2021 05:10:10 81.25, 147.19 63.69 07/23/2021 05:11:06 81.25, 147.17 63.71 0.42 56



Historial Predications of SNOs between METOP-B and TERRA
